Regional Weather Roundup
Issued by NWS Jackson, KY

Home | Current Version | Previous Version | Graphics & Text | Print | Product List | Glossary Off
Versions: 1 2 3 4 5 6 7 8 9 10 11 12 13 14 15 16 17 18 19 20 21 22 23 24 25 26 27 28 29 30 31 32 33 34 35 36 37 38 39 40 41 42 43 44 45 46 47 48 49 50

000
ASUS43 KJKL 310319
RWRJKL

EAST KENTUCKY HOURLY WEATHER ROUNDUP
NATIONAL WEATHER SERVICE JACKSON KY
1100 PM EDT THU OCT 30 2014

NOTE: "FAIR" INDICATES FEW OR NO CLOUDS BELOW 12,000 FEET WITH
NO SIGNIFICANT WEATHER AND/OR OBSTRUCTIONS TO VISIBILITY.

* THESE REPORTS ARE NOT UNDER NWS QUALITY CONTROL AND MAY NOT
  REPORT WEATHER SUCH AS PRECIPITATION AND FOG.

KYZ079-080-083-085-087-088-110-112-115-119-120-310400
...EASTERN KENTUCKY...

CITY           SKY/WX    TMP DP  RH WIND       PRES   REMARKS
JACKSON        PTCLDY    44  33  65 CALM      30.05S
LONDON         CLEAR     46  35  65 NE3       30.05R
SOMERSET*      CLEAR     43  36  75 CALM      30.07R
WILLIAMSBURG*  CLEAR     41  37  87 MISG      30.05R
MIDDLESBORO*   CLEAR     40  38  95 CALM      30.04S
HARLAN APT*    CLEAR     41  41 100 CALM      30.03S
HAZARD APT*    CLEAR     41  36  81 CALM      30.05
BLACK MTN*       N/A     37  34  87 CALM        N/A
PIKEVILLE APT* CLEAR     43  34  70 CALM      30.04S
BIG SANDY*     PTCLDY    38  36  91 E5        30.05F WCI  35
MOREHEAD APT*  CLOUDY    43  34  70 CALM      30.08R
ASHLAND*       CLEAR     37  34  87 CALM      30.05S
$$

KYZ035-036-041-042-044-050-067-078-099-310400
...CENTRAL KENTUCKY...

CITY           SKY/WX    TMP DP  RH WIND       PRES   REMARKS
MT STERLING*   CLEAR     34  34 100 CALM      30.07S
FLEMING/MASON* CLEAR     41  34  75 CALM      30.07S
DANVILLE*      CLEAR     37  36  93 CALM      30.06S
RICHMOND*      CLEAR     39  36  87 CALM      30.05S
LEXINGTON      CLEAR     42  35  76 CALM      30.06S
FRANKFORT      PTCLDY    40  35  83 CALM      30.05S
$$

KYZ091>093-OHZ055-061-077-WVZ005-015-034-035-042-310400
...SOUTHERN OHIO/WEST VIRGINIA...

CITY           SKY/WX    TMP DP  RH WIND       PRES   REMARKS
COLUMBUS       CLOUDY    47  34  60 CALM      30.06S
DAYTON         MOCLDY    41  33  73 NE3       30.07S
WILMINGTON     PTCLDY    39  32  76 E5        30.06S
HUNTINGTON     PTCLDY    42  34  73 E3        30.06S
CHARLESTON     CLEAR     40  35  83 SE3       30.07R
PINEVILLE*     CLEAR     35  35 100 MISG      30.10S
BECKLEY        CLEAR     33  28  81 CALM      30.03S
BLUEFIELD      CLEAR     39  30  70 E3        30.03S
$$

VAZ002-007-008-TNZ017-027-036-066-071-310400
...SOUTHWEST VIRGINIA/EAST TENNESSEE...

CITY           SKY/WX    TMP DP  RH WIND       PRES   REMARKS
WISE*          CLEAR     39  32  75 N3        30.04S
JONESVILLE*    CLEAR     37  37 100 CALM      30.05S
ABINGDON*      CLEAR     41  37  87 CALM      30.01S
BRISTOL        PTCLDY    40  38  93 N3        30.01F
KNOXVILLE      PTCLDY    45  41  86 E3        30.01R
OAK RIDGE      CLEAR     46  42  86 CALM      30.04R
CROSSVILLE     CLEAR     43  36  76 NW3       30.04R
NASHVILLE      CLOUDY    48  43  82 CALM      30.04F
$$

...KEY TO REMARKS...
VSB - VISIBILITY IN MILES
WCI - WIND CHILL INDEX
HX  - HEAT INDEX

$$



USA.gov is the U.S. government's official web portal to all federal, state and local government web resources and services.